Tracking 19193 objects as of 24-Jun-2018
HD Live streaming from Space Station
objects crossing your sky now

FENGYUN 1C DEB

Track FENGYUN 1C DEB now!
10-day predictions


NORAD ID: 35227
Int'l Code: 1999-025DQK
Perigee: 635.3 km
Apogee: 748.4 km
Inclination: 98.9 °
Period: 98.5 minutes
Semi major axis: 7062 km
RCS: 0.0108 m2 (small)
Launch date: May 10, 1999
Source: People's Republic of China (PRC)
Launch site: Taiyaun Space Center, China (TSC)

Note: This is SATELLITE DEBRIS
aabbcc
Your satellite tracking list
Your tracking list is empty




NASA's NSSDC Master Catalog

Two Line Element Set (TLE):
1 35227U 99025DQK 18174.52298829  .00001066  00000-0  21125-3 0  9997
2 35227  98.8943  89.2687 0080009  84.2278 276.8036 14.62623410555534
Source of the keplerian elements: AFSPC